| time (UTC) | temp C | wind direction | speed KPH | gust KPH | rain 1hr cm | rain 24hr cm | rain mn cm | humidity % | barometer mb |
| 20260506113516 | 10 | 0 | 4.8 | 12.9 | 0.00 | 0.00 | 0.00 | 87 | 1012.0 |
| 20260506112516 | 10 | 0 | 3.2 | 14.5 | 0.00 | 0.00 | 0.00 | 87 | 1011.7 |
| 20260506111516 | 10 | 23 | 3.2 | 9.7 | 0.00 | 0.00 | 0.00 | 86 | 1011.6 |
| 20260506110536 | 10 | 293 | 4.8 | 14.5 | 0.00 | 0.00 | 0.00 | 86 | 1011.4 |
| 20260506105516 | 10 | 23 | 8.0 | 16.1 | 0.00 | 0.00 | 0.00 | 85 | 1011.5 |
| 20260506104536 | 10 | 0 | 6.4 | 16.1 | 0.00 | 0.00 | 0.00 | 83 | 1011.3 |
| 20260506103516 | 11 | 338 | 6.4 | 17.7 | 0.00 | 0.00 | 0.00 | 82 | 1011.3 |
| 20260506102556 | 11 | 23 | 4.8 | 14.5 | 0.00 | 0.00 | 0.00 | 80 | 1011.3 |
| 20260506101516 | 11 | 23 | 4.8 | 14.5 | 0.00 | 0.00 | 0.00 | 79 | 1011.3 |
| 20260506100516 | 11 | 338 | 3.2 | 11.3 | 0.00 | 0.00 | 0.00 | 78 | 1011.0 |
| 20260506095536 | 11 | 293 | 4.8 | 16.1 | 0.00 | 0.00 | 0.00 | 78 | 1011.1 |
| 20260506094516 | 12 | 23 | 4.8 | 14.5 | 0.00 | 0.00 | 0.00 | 77 | 1010.8 |
| 20260506093516 | 12 | 0 | 3.2 | 11.3 | 0.00 | 0.00 | 0.00 | 77 | 1010.6 |
| 20260506092536 | 12 | 0 | 6.4 | 14.5 | 0.00 | 0.00 | 0.00 | 76 | 1010.2 |
| 20260506091516 | 12 | 23 | 4.8 | 12.9 | 0.00 | 0.00 | 0.00 | 77 | 1010.2 |
| 20260506090516 | 12 | 0 | 4.8 | 11.3 | 0.00 | 0.00 | 0.00 | 77 | 1010.1 |
| 20260506085516 | 12 | 23 | 6.4 | 16.1 | 0.00 | 0.00 | 0.00 | 76 | 1009.9 |
| 20260506084515 | 12 | 23 | 3.2 | 6.4 | 0.00 | 0.00 | 0.00 | 77 | 1009.8 |
| 20260506083515 | 12 | 293 | 1.6 | 6.4 | 0.00 | 0.00 | 0.00 | 78 | 1009.8 |
| 20260506082535 | 12 | 23 | 4.8 | 14.5 | 0.00 | 0.00 | 0.00 | 77 | 1009.9 |
| 20260506081515 | 12 | 23 | 6.4 | 14.5 | 0.00 | 0.00 | 0.00 | 77 | 1009.7 |
| 20260506080515 | 12 | 23 | 3.2 | 11.3 | 0.00 | 0.00 | 0.00 | 77 | 1009.9 |
| 20260506073515 | 12 | 338 | 3.2 | 8.0 | 0.00 | 0.00 | 0.00 | 79 | 1009.9 |
| 20260506072535 | 12 | 315 | 1.6 | 8.0 | 0.00 | 0.00 | 0.00 | 79 | 1010.0 |
| 20260506071515 | 12 | 45 | 4.8 | 9.7 | 0.00 | 0.00 | 0.00 | 78 | 1009.6 |
| 20260506070515 | 12 | 45 | 3.2 | 9.7 | 0.00 | 0.00 | 0.00 | 78 | 1009.7 |
| 20260506062517 | 12 | 23 | 6.4 | 16.1 | 0.00 | 0.00 | 0.00 | 78 | 1009.2 |
| 20260506061537 | 13 | 45 | 4.8 | 11.3 | 0.00 | 0.00 | 0.00 | 78 | 1009.4 |
| 20260506060517 | 13 | 23 | 6.4 | 14.5 | 0.00 | 0.00 | 0.00 | 78 | 1009.2 |
| 20260506050518 | 13 | 23 | 8.0 | 19.3 | 0.00 | 0.00 | 0.00 | 79 | 1009.3 |
| 20260506044516 | 13 | 23 | 4.8 | 12.9 | 0.00 | 0.00 | 0.00 | 80 | 1009.3 |
| 20260506043515 | 13 | 23 | 6.4 | 16.1 | 0.00 | 0.00 | 0.00 | 81 | 1009.3 |
| 20260506042515 | 13 | 23 | 4.8 | 9.7 | 0.00 | 0.00 | 0.00 | 81 | 1009.3 |
| 20260506041515 | 13 | 23 | 3.2 | 8.0 | 0.00 | 0.00 | 0.00 | 81 | 1009.2 |
| 20260506040515 | 14 | 23 | 4.8 | 12.9 | 0.00 | 0.00 | 0.00 | 81 | 1009.2 |
| 20260506035516 | 14 | 23 | 6.4 | 14.5 | 0.00 | 0.00 | 0.00 | 81 | 1009.1 |
| 20260506034535 | 14 | 23 | 6.4 | 14.5 | 0.00 | 0.00 | 0.00 | 81 | 1008.9 |
| 20260506033535 | 14 | 0 | 6.4 | 19.3 | 0.00 | 0.00 | 0.00 | 81 | 1009.0 |
| 20260506032515 | 15 | 0 | 4.8 | 17.7 | 0.00 | 0.00 | 0.00 | 80 | 1008.9 |
| 20260506031517 | 15 | 23 | 8.0 | 19.3 | 0.00 | 0.00 | 0.00 | 80 | 1008.5 |
| 20260506030517 | 15 | 23 | 9.7 | 20.9 | 0.00 | 0.00 | 0.00 | 80 | 1008.3 |
| 20260506025517 | 15 | 23 | 11.3 | 20.9 | 0.00 | 0.00 | 0.00 | 80 | 1008.2 |
| 20260506024517 | 15 | 23 | 9.7 | 22.5 | 0.00 | 0.00 | 0.00 | 79 | 1008.1 |
| 20260506023517 | 16 | 23 | 8.0 | 14.5 | 0.00 | 0.00 | 0.00 | 79 | 1008.2 |
| 20260506022517 | 16 | 0 | 6.4 | 16.1 | 0.00 | 0.00 | 0.00 | 79 | 1007.7 |
| 20260506021517 | 16 | 23 | 6.4 | 14.5 | 0.00 | 0.00 | 0.00 | 78 | 1007.5 |
| 20260506020517 | 16 | 23 | 4.8 | 12.9 | 0.00 | 0.00 | 0.00 | 78 | 1007.0 |
| 20260506015517 | 16 | 23 | 4.8 | 16.1 | 0.00 | 0.00 | 0.00 | 78 | 1006.6 |
| 20260506014517 | 17 | 23 | 4.8 | 12.9 | 0.00 | 0.00 | 0.00 | 77 | 1006.1 |
| 20260506013517 | 17 | 0 | 6.4 | 16.1 | 0.00 | 0.00 | 0.00 | 77 | 1005.6 |
| 20260506012517 | 17 | 0 | 4.8 | 12.9 | 0.00 | 0.00 | 0.00 | 76 | 1005.2 |
| 20260506011517 | 17 | 0 | 6.4 | 14.5 | 0.00 | 0.00 | 0.00 | 76 | 1005.5 |
| 20260506010537 | 18 | 23 | 4.8 | 11.3 | 0.00 | 0.00 | 0.00 | 75 | 1004.9 |
| 20260506005517 | 18 | 23 | 4.8 | 14.5 | 0.00 | 0.00 | 0.00 | 75 | 1005.0 |
| 20260506004517 | 18 | 0 | 3.2 | 9.7 | 0.00 | 0.00 | 0.00 | 75 | 1004.9 |
| 20260506003516 | 18 | 293 | 6.4 | 16.1 | 0.00 | 0.00 | 0.00 | 75 | 1004.9 |
| 20260506002518 | 18 | 293 | 4.8 | 16.1 | 0.00 | 0.00 | 0.00 | 74 | 1005.1 |
| 20260506001516 | 19 | 270 | 3.2 | 8.0 | 0.00 | 0.00 | 0.00 | 74 | 1004.8 |
| 20260506000517 | 19 | 315 | 4.8 | 14.5 | 0.00 | 0.00 | 0.00 | 73 | 1004.8 |
| 20260505235516 | 19 | 293 | 4.8 | 16.1 | 0.00 | 0.00 | 0.00 | 73 | 1004.8 |
| 20260505234517 | 20 | 293 | 9.7 | 22.5 | 0.00 | 0.00 | 0.00 | 72 | 1004.9 |
| 20260505233516 | 20 | 315 | 6.4 | 14.5 | 0.00 | 0.00 | 0.00 | 71 | 1004.7 |
| 20260505232516 | 21 | 293 | 9.7 | 25.7 | 0.00 | 0.00 | 0.00 | 72 | 1004.9 |
| 20260505231517 | 21 | 293 | 6.4 | 17.7 | 0.00 | 0.00 | 0.00 | 71 | 1004.5 |
| 20260505230556 | 22 | 293 | 6.4 | 16.1 | 0.00 | 0.00 | 0.00 | 70 | 1004.4 |
| 20260505225516 | 22 | 293 | 12.9 | 19.3 | 0.00 | 0.00 | 0.00 | 70 | 1004.6 |
| 20260505224517 | 22 | 293 | 12.9 | 24.1 | 0.00 | 0.00 | 0.00 | 69 | 1004.5 |
| 20260505223516 | 23 | 293 | 16.1 | 24.1 | 0.00 | 0.00 | 0.00 | 69 | 1004.4 |
| 20260505222516 | 23 | 293 | 16.1 | 25.7 | 0.00 | 0.00 | 0.00 | 68 | 1004.3 |
| 20260505221516 | 24 | 293 | 11.3 | 20.9 | 0.00 | 0.00 | 0.00 | 67 | 1004.2 |
| 20260505220516 | 25 | 293 | 16.1 | 25.7 | 0.00 | 0.00 | 0.00 | 65 | 1004.1 |
| 20260505215516 | 25 | 293 | 8.0 | 20.9 | 0.00 | 0.00 | 0.00 | 65 | 1003.9 |
| 20260505214516 | 26 | 293 | 16.1 | 24.1 | 0.00 | 0.00 | 0.00 | 64 | 1003.9 |
| 20260505213516 | 26 | 293 | 9.7 | 19.3 | 0.00 | 0.00 | 0.00 | 67 | 1003.7 |
| 20260505212516 | 26 | 293 | 14.5 | 20.9 | 0.00 | 0.00 | 0.00 | 63 | 1004.0 |
| 20260505211516 | 26 | 293 | 12.9 | 17.7 | 0.00 | 0.00 | 0.00 | 63 | 1003.7 |
| 20260505210536 | 27 | 293 | 14.5 | 22.5 | 0.00 | 0.00 | 0.00 | 61 | 1004.1 |
| 20260505205516 | 27 | 293 | 14.5 | 24.1 | 0.00 | 0.00 | 0.00 | 62 | 1004.2 |
| 20260505204516 | 27 | 293 | 16.1 | 24.1 | 0.00 | 0.00 | 0.00 | 62 | 1004.2 |
| 20260505203516 | 27 | 293 | 16.1 | 24.1 | 0.00 | 0.00 | 0.00 | 61 | 1004.4 |
| 20260505202516 | 27 | 293 | 19.3 | 29.0 | 0.00 | 0.00 | 0.00 | 61 | 1004.4 |
| 20260505201516 | 28 | 293 | 17.7 | 25.7 | 0.00 | 0.00 | 0.00 | 58 | 1004.5 |
| 20260505200556 | 28 | 293 | 17.7 | 25.7 | 0.00 | 0.00 | 0.00 | 52 | 1004.2 |
| 20260505195516 | 27 | 293 | 16.1 | 25.7 | 0.00 | 0.00 | 0.00 | 50 | 1004.3 |
| 20260505194515 | 28 | 293 | 19.3 | 27.4 | 0.00 | 0.00 | 0.00 | 49 | 1004.3 |
| 20260505193516 | 28 | 293 | 17.7 | 27.4 | 0.00 | 0.00 | 0.00 | 50 | 1004.0 |
| 20260505192516 | 30 | 293 | 16.1 | 33.8 | 0.00 | 0.00 | 0.00 | 46 | 1004.1 |
| 20260505191535 | 30 | 270 | 6.4 | 19.3 | 0.00 | 0.00 | 0.00 | 54 | 1004.1 |
| 20260505190516 | 30 | 248 | 4.8 | 19.3 | 0.00 | 0.00 | 0.00 | 58 | 1004.0 |
| 20260505185555 | 30 | 225 | 4.8 | 9.7 | 0.00 | 0.00 | 0.00 | 57 | 1004.0 |
| 20260505184515 | 29 | 248 | 6.4 | 19.3 | 0.00 | 0.00 | 0.00 | 59 | 1003.9 |
| 20260505183516 | 29 | 248 | 4.8 | 11.3 | 0.00 | 0.00 | 0.00 | 65 | 1004.0 |
| 20260505182515 | 28 | 248 | 1.6 | 4.8 | 0.00 | 0.00 | 0.00 | 66 | 1004.0 |
| 20260505181517 | 28 | 203 | 3.2 | 6.4 | 0.00 | 0.00 | 0.00 | 68 | 1004.1 |
| 20260505180515 | 27 | 225 | 4.8 | 9.7 | 0.00 | 0.00 | 0.00 | 66 | 1004.0 |
| 20260505175616 | 28 | 225 | 4.8 | 12.9 | 0.00 | 0.00 | 0.00 | 66 | 1004.1 |
| 20260505174515 | 27 | 225 | 4.8 | 8.0 | 0.00 | 0.00 | 0.00 | 66 | 1003.9 |
| 20260505173515 | 27 | 225 | 8.0 | 14.5 | 0.00 | 0.00 | 0.00 | 65 | 1003.9 |
| 20260505172515 | 28 | 225 | 6.4 | 11.3 | 0.00 | 0.00 | 0.00 | 66 | 1003.9 |
| 20260505171537 | 27 | 225 | 8.0 | 12.9 | 0.00 | 0.00 | 0.00 | 68 | 1003.6 |
| 20260505170517 | 27 | 225 | 6.4 | 11.3 | 0.00 | 0.00 | 0.00 | 71 | 1003.6 |
| 20260505165517 | 27 | 225 | 8.0 | 14.5 | 0.00 | 0.00 | 0.00 | 70 | 1003.6 |
| 20260505164517 | 26 | 225 | 6.4 | 11.3 | 0.00 | 0.00 | 0.00 | 76 | 1003.7 |
| 20260505163557 | 25 | 225 | 8.0 | 11.3 | 0.00 | 0.00 | 0.00 | 75 | 1003.5 |
| 20260505162515 | 25 | 225 | 6.4 | 11.3 | 0.00 | 0.00 | 0.00 | 76 | 1003.4 |
| 20260505161517 | 25 | 203 | 6.4 | 12.9 | 0.00 | 0.00 | 0.00 | 76 | 1003.3 |
| 20260505160517 | 24 | 203 | 6.4 | 11.3 | 0.00 | 0.00 | 0.00 | 76 | 1003.3 |
| 20260505152537 | 24 | 225 | 4.8 | 9.7 | 0.00 | 0.00 | 0.00 | 76 | 1003.1 |
| 20260505151537 | 23 | 203 | 8.0 | 14.5 | 0.00 | 0.00 | 0.00 | 76 | 1003.2 |
| 20260505150517 | 24 | 225 | 4.8 | 12.9 | 0.00 | 0.00 | 0.00 | 77 | 1003.0 |
| 20260505140557 | 22 | 203 | 8.0 | 14.5 | 0.00 | 0.00 | 0.00 | 82 | 1002.8 |
| 20260505124516 | 20 | 203 | 8.0 | 14.5 | 0.00 | 0.00 | 0.00 | 84 | 1002.8 |
| 20260505123516 | 20 | 180 | 3.2 | 8.0 | 0.00 | 0.00 | 0.00 | 85 | 1002.6 |
| 20260505122516 | 20 | 180 | 6.4 | 9.7 | 0.00 | 0.00 | 0.00 | 85 | 1002.3 |
| 20260505121516 | 20 | 203 | 6.4 | 11.3 | 0.00 | 0.00 | 0.00 | 85 | 1002.0 |
| 20260505120516 | 20 | 180 | 6.4 | 11.3 | 0.00 | 0.00 | 0.00 | 85 | 1001.9 |
| 20260505115516 | 20 | 180 | 6.4 | 12.9 | 0.00 | 0.00 | 0.00 | 85 | 1002.0 |
| 20260505114516 | 20 | 180 | 6.4 | 9.7 | 0.00 | 0.00 | 0.00 | 85 | 1002.0 |